| time (UTC) | temp F | wind direction | speed MPH | gust MPH | rain 1hr in | rain 24hr in | rain mn in | humidity % | barometer mb |
| 20260905215317 | 64 | 270 | 3.0 | 0.0 | 0.00 | 0.00 | 0.00 | 5 | 1241.6 |
| 20260905214814 | 64 | 247 | 5.0 | 8.0 | 0.00 | 0.00 | 0.00 | 5 | 1241.5 |
| 20260905214311 | 64 | 270 | 4.0 | 6.0 | 0.00 | 0.00 | 0.00 | 5 | 1241.7 |
| 20260905213808 | 64 | 270 | 4.0 | 7.0 | 0.00 | 0.00 | 0.00 | 5 | 1240.8 |
| 20260905213306 | 64 | 270 | 4.0 | 6.0 | 0.00 | 0.00 | 0.00 | 5 | 1241.2 |
| 20260905212803 | 64 | 247 | 3.0 | 3.0 | 0.00 | 0.00 | 0.00 | 5 | 1240.3 |
| 20260905211755 | 65 | 270 | 4.0 | 6.0 | 0.00 | 0.00 | 0.00 | 5 | 1241.0 |
| 20260905211252 | 65 | 292 | 3.0 | 4.0 | 0.00 | 0.00 | 0.00 | 5 | 1240.2 |
| 20260905210749 | 65 | 247 | 4.0 | 6.0 | 0.00 | 0.00 | 0.00 | 5 | 1239.1 |
| 20260905205741 | 65 | 270 | 4.0 | 0.0 | 0.00 | 0.00 | 0.00 | 5 | 1239.7 |
| 20260905205238 | 65 | 247 | 5.0 | 7.0 | 0.00 | 0.00 | 0.00 | 5 | 1239.4 |
| 20260905204736 | 65 | 247 | 5.0 | 9.0 | 0.00 | 0.00 | 0.00 | 5 | 1239.4 |
| 20260905204233 | 66 | 270 | 3.0 | 3.0 | 0.00 | 0.00 | 0.00 | 5 | 1238.8 |
| 20260905203730 | 66 | 270 | 0.0 | 0.0 | 0.00 | 0.00 | 0.00 | 5 | 1239.6 |
| 20260905203227 | 66 | 270 | 6.0 | 10.0 | 0.00 | 0.00 | 0.00 | 5 | 1239.3 |
| 20260905202724 | 66 | 247 | 3.0 | 5.0 | 0.00 | 0.00 | 0.00 | 5 | 1238.3 |
| 20260905202222 | 66 | 270 | 5.0 | 7.0 | 0.00 | 0.00 | 0.00 | 5 | 1239.1 |
| 20260905201719 | 66 | 247 | 3.0 | 3.0 | 0.00 | 0.00 | 0.00 | 5 | 1238.6 |
| 20260905201216 | 66 | 270 | 4.0 | 7.0 | 0.00 | 0.00 | 0.00 | 5 | 1239.1 |
| 20260905200713 | 66 | 270 | 3.0 | 4.0 | 0.00 | 0.00 | 0.00 | 5 | 1238.4 |
| 20260905200211 | 66 | 270 | 0.0 | 0.0 | 0.00 | 0.00 | 0.00 | 5 | 1239.3 |
| 20260905195708 | 67 | 270 | 0.0 | 0.0 | 0.00 | 0.00 | 0.00 | 5 | 1238.6 |
| 20260905195205 | 67 | 270 | 4.0 | 4.0 | 0.00 | 0.00 | 0.00 | 5 | 1238.7 |
| 20260905194702 | 67 | 270 | 3.0 | 6.0 | 0.00 | 0.00 | 0.00 | 5 | 1238.4 |
| 20260905194200 | 67 | 247 | 4.0 | 7.0 | 0.00 | 0.00 | 0.00 | 5 | 1237.0 |
| 20260905193659 | 68 | 292 | 0.0 | 0.0 | 0.00 | 0.00 | 0.00 | 5 | 1237.0 |
| 20260905193154 | 68 | 292 | 0.0 | 0.0 | 0.00 | 0.00 | 0.00 | 5 | 1237.6 |
| 20260905192146 | 68 | 270 | 4.0 | 6.0 | 0.00 | 0.00 | 0.00 | 5 | 1237.0 |
| 20260905191643 | 67 | 0 | 0.0 | 0.0 | 0.00 | 0.00 | 0.00 | 5 | 1236.8 |
| 20260905191140 | 68 | 0 | 0.0 | 0.0 | 0.00 | 0.00 | 0.00 | 5 | 1236.5 |
| 20260905190638 | 68 | 0 | 3.0 | 4.0 | 0.00 | 0.00 | 0.00 | 5 | 1236.8 |
| 20260905190135 | 68 | 247 | 0.0 | 0.0 | 0.00 | 0.00 | 0.00 | 5 | 1236.7 |
| 20260905185632 | 69 | 247 | 0.0 | 0.0 | 0.00 | 0.00 | 0.00 | 5 | 1236.3 |
| 20260905185129 | 69 | 225 | 0.0 | 0.0 | 0.00 | 0.00 | 0.00 | 5 | 1236.3 |
| 20260905184626 | 70 | 247 | 5.0 | 10.0 | 0.00 | 0.00 | 0.00 | 5 | 1236.0 |
| 20260905184124 | 69 | 270 | 5.0 | 10.0 | 0.00 | 0.00 | 0.00 | 5 | 1236.1 |
| 20260905183621 | 69 | 247 | 6.0 | 12.0 | 0.00 | 0.00 | 0.00 | 5 | 1236.5 |
| 20260905183118 | 70 | 247 | 4.0 | 8.0 | 0.00 | 0.00 | 0.00 | 5 | 1235.3 |
| 20260905182615 | 70 | 247 | 4.0 | 6.0 | 0.00 | 0.00 | 0.00 | 5 | 1234.6 |
| 20260905182113 | 70 | 247 | 4.0 | 8.0 | 0.00 | 0.00 | 0.00 | 5 | 1235.0 |
| 20260905181610 | 70 | 270 | 4.0 | 7.0 | 0.00 | 0.00 | 0.00 | 5 | 1234.6 |
| 20260905181107 | 70 | 270 | 5.0 | 9.0 | 0.00 | 0.00 | 0.00 | 5 | 1234.5 |
| 20260905180604 | 70 | 247 | 4.0 | 7.0 | 0.00 | 0.00 | 0.00 | 5 | 1234.4 |
| 20260905175559 | 70 | 270 | 4.0 | 10.0 | 0.00 | 0.00 | 0.00 | 5 | 1234.4 |
| 20260905175056 | 70 | 270 | 5.0 | 11.0 | 0.00 | 0.00 | 0.00 | 5 | 1234.7 |
| 20260905174553 | 71 | 270 | 6.0 | 10.0 | 0.00 | 0.00 | 0.00 | 5 | 1235.5 |
| 20260905174050 | 71 | 270 | 4.0 | 7.0 | 0.00 | 0.00 | 0.00 | 5 | 1233.5 |
| 20260905173548 | 71 | 270 | 5.0 | 8.0 | 0.00 | 0.00 | 0.00 | 5 | 1232.8 |
| 20260905173045 | 71 | 247 | 4.0 | 7.0 | 0.00 | 0.00 | 0.00 | 5 | 1232.4 |
| 20260905172542 | 71 | 270 | 4.0 | 9.0 | 0.00 | 0.00 | 0.00 | 5 | 1232.4 |
| 20260905172040 | 71 | 270 | 6.0 | 11.0 | 0.00 | 0.00 | 0.00 | 5 | 1233.8 |
| 20260905171537 | 71 | 270 | 5.0 | 11.0 | 0.00 | 0.00 | 0.00 | 5 | 1233.9 |
| 20260905171034 | 72 | 247 | 4.0 | 7.0 | 0.00 | 0.00 | 0.00 | 5 | 1232.4 |
| 20260905170531 | 72 | 247 | 5.0 | 10.0 | 0.00 | 0.00 | 0.00 | 5 | 1232.5 |
| 20260905170028 | 72 | 225 | 5.0 | 13.0 | 0.00 | 0.00 | 0.00 | 4 | 1231.0 |
| 20260905165526 | 72 | 270 | 5.0 | 10.0 | 0.00 | 0.00 | 0.00 | 4 | 1230.4 |
| 20260905165023 | 72 | 270 | 6.0 | 14.0 | 0.00 | 0.00 | 0.00 | 4 | 1231.2 |
| 20260905164520 | 73 | 270 | 6.0 | 14.0 | 0.00 | 0.00 | 0.00 | 4 | 1231.4 |
| 20260905164017 | 73 | 270 | 6.0 | 15.0 | 0.00 | 0.00 | 0.00 | 4 | 1229.1 |
| 20260905163515 | 73 | 270 | 8.0 | 15.0 | 0.00 | 0.00 | 0.00 | 4 | 1230.7 |
| 20260905163012 | 73 | 270 | 6.0 | 15.0 | 0.00 | 0.00 | 0.00 | 4 | 1229.0 |
| 20260905162509 | 74 | 247 | 6.0 | 12.0 | 0.00 | 0.00 | 0.00 | 4 | 1228.2 |
| 20260905162007 | 74 | 270 | 7.0 | 16.0 | 0.00 | 0.00 | 0.00 | 4 | 1230.3 |
| 20260905161504 | 74 | 247 | 8.0 | 17.0 | 0.00 | 0.00 | 0.00 | 4 | 1230.5 |
| 20260905161001 | 74 | 225 | 6.0 | 16.0 | 0.00 | 0.00 | 0.00 | 4 | 1230.0 |
| 20260905160458 | 74 | 225 | 7.0 | 17.0 | 0.00 | 0.00 | 0.00 | 4 | 1229.0 |
| 20260905155955 | 74 | 247 | 6.0 | 14.0 | 0.00 | 0.00 | 0.00 | 4 | 1230.4 |
| 20260905155453 | 74 | 270 | 5.0 | 10.0 | 0.00 | 0.00 | 0.00 | 4 | 1228.2 |
| 20260905154950 | 74 | 270 | 7.0 | 19.0 | 0.00 | 0.00 | 0.00 | 4 | 1230.1 |
| 20260905154447 | 74 | 270 | 6.0 | 19.0 | 0.00 | 0.00 | 0.00 | 4 | 1228.6 |
| 20260905153944 | 74 | 270 | 7.0 | 19.0 | 0.00 | 0.00 | 0.00 | 4 | 1229.4 |
| 20260905153442 | 75 | 225 | 8.0 | 15.0 | 0.00 | 0.00 | 0.00 | 4 | 1229.8 |
| 20260905152939 | 75 | 270 | 5.0 | 13.0 | 0.00 | 0.00 | 0.00 | 4 | 1227.6 |
| 20260905152438 | 75 | 225 | 6.0 | 15.0 | 0.00 | 0.00 | 0.00 | 4 | 1228.6 |
| 20260905151934 | 75 | 247 | 6.0 | 14.0 | 0.00 | 0.00 | 0.00 | 4 | 1228.6 |
| 20260905151431 | 75 | 270 | 6.0 | 11.0 | 0.00 | 0.00 | 0.00 | 4 | 1228.5 |
| 20260905150928 | 75 | 270 | 6.0 | 10.0 | 0.00 | 0.00 | 0.00 | 4 | 1227.5 |
| 20260905150425 | 75 | 247 | 5.0 | 9.0 | 0.00 | 0.00 | 0.00 | 4 | 1227.9 |
| 20260905145923 | 75 | 247 | 8.0 | 17.0 | 0.00 | 0.00 | 0.00 | 4 | 1230.1 |
| 20260905145420 | 75 | 225 | 8.0 | 15.0 | 0.00 | 0.00 | 0.00 | 4 | 1228.6 |
| 20260905144917 | 75 | 270 | 6.0 | 11.0 | 0.00 | 0.00 | 0.00 | 4 | 1227.8 |
| 20260905144414 | 75 | 270 | 6.0 | 14.0 | 0.00 | 0.00 | 0.00 | 4 | 1228.1 |
| 20260905143911 | 75 | 225 | 7.0 | 16.0 | 0.00 | 0.00 | 0.00 | 4 | 1229.3 |
| 20260905143409 | 75 | 225 | 8.0 | 19.0 | 0.00 | 0.00 | 0.00 | 4 | 1229.1 |
| 20260905142906 | 75 | 270 | 6.0 | 16.0 | 0.00 | 0.00 | 0.00 | 4 | 1229.0 |
| 20260905142403 | 74 | 270 | 10.0 | 20.0 | 0.00 | 0.00 | 0.00 | 4 | 1229.8 |
| 20260905141900 | 75 | 270 | 5.0 | 18.0 | 0.00 | 0.00 | 0.00 | 4 | 1227.3 |
| 20260905141358 | 74 | 270 | 5.0 | 15.0 | 0.00 | 0.00 | 0.00 | 4 | 1228.2 |
| 20260905140855 | 74 | 112 | 7.0 | 14.0 | 0.00 | 0.00 | 0.00 | 4 | 1229.1 |
| 20260905140352 | 74 | 247 | 8.0 | 21.0 | 0.00 | 0.00 | 0.00 | 5 | 1230.5 |
| 20260905135849 | 74 | 112 | 7.0 | 23.0 | 0.00 | 0.00 | 0.00 | 5 | 1230.1 |
| 20260905135346 | 73 | 225 | 8.0 | 20.0 | 0.00 | 0.00 | 0.00 | 5 | 1232.0 |
| 20260905134844 | 73 | 90 | 6.0 | 13.0 | 0.00 | 0.00 | 0.00 | 5 | 1230.3 |
| 20260905134341 | 73 | 270 | 7.0 | 16.0 | 0.00 | 0.00 | 0.00 | 5 | 1231.8 |
| 20260905133838 | 73 | 270 | 8.0 | 15.0 | 0.00 | 0.00 | 0.00 | 5 | 1231.0 |
| 20260905133336 | 73 | 247 | 5.0 | 13.0 | 0.00 | 0.00 | 0.00 | 4 | 1228.6 |
| 20260905132833 | 73 | 270 | 6.0 | 16.0 | 0.00 | 0.00 | 0.00 | 5 | 1230.6 |
| 20260905132330 | 73 | 135 | 8.0 | 15.0 | 0.00 | 0.00 | 0.00 | 5 | 1230.5 |
| 20260905131827 | 73 | 270 | 6.0 | 12.0 | 0.00 | 0.00 | 0.00 | 5 | 1231.6 |
| 20260905131324 | 73 | 270 | 7.0 | 17.0 | 0.00 | 0.00 | 0.00 | 5 | 1231.0 |
| 20260905130822 | 73 | 270 | 4.0 | 11.0 | 0.00 | 0.00 | 0.00 | 5 | 1231.0 |
| 20260905130319 | 72 | 247 | 7.0 | 19.0 | 0.00 | 0.00 | 0.00 | 5 | 1233.0 |
| 20260905125816 | 73 | 270 | 8.0 | 20.0 | 0.00 | 0.00 | 0.00 | 5 | 1234.0 |
| 20260905125313 | 73 | 270 | 8.0 | 17.0 | 0.00 | 0.00 | 0.00 | 5 | 1232.9 |
| 20260905124811 | 73 | 112 | 7.0 | 16.0 | 0.00 | 0.00 | 0.00 | 5 | 1231.6 |
| 20260905124308 | 73 | 270 | 7.0 | 15.0 | 0.00 | 0.00 | 0.00 | 5 | 1231.5 |
| 20260905123805 | 72 | 270 | 6.0 | 13.0 | 0.00 | 0.00 | 0.00 | 5 | 1232.4 |
| 20260905123303 | 72 | 247 | 9.0 | 18.0 | 0.00 | 0.00 | 0.00 | 5 | 1235.1 |
| 20260905122800 | 72 | 270 | 7.0 | 16.0 | 0.00 | 0.00 | 0.00 | 5 | 1234.4 |
| 20260905122257 | 72 | 247 | 9.0 | 20.0 | 0.00 | 0.00 | 0.00 | 5 | 1234.4 |
| 20260905121754 | 72 | 270 | 10.0 | 22.0 | 0.00 | 0.00 | 0.00 | 5 | 1236.9 |
| 20260905121251 | 71 | 270 | 9.0 | 24.0 | 0.00 | 0.00 | 0.00 | 5 | 1235.6 |
| 20260905120749 | 71 | 292 | 8.0 | 23.0 | 0.00 | 0.00 | 0.00 | 5 | 1234.8 |
| 20260905120246 | 72 | 270 | 7.0 | 15.0 | 0.00 | 0.00 | 0.00 | 5 | 1234.2 |
| 20260905115743 | 71 | 270 | 10.0 | 24.0 | 0.00 | 0.00 | 0.00 | 5 | 1236.8 |
| 20260905115240 | 71 | 270 | 10.0 | 24.0 | 0.00 | 0.00 | 0.00 | 5 | 1235.4 |
| 20260905114738 | 71 | 225 | 8.0 | 18.0 | 0.00 | 0.00 | 0.00 | 5 | 1234.1 |
| 20260905114235 | 71 | 270 | 8.0 | 21.0 | 0.00 | 0.00 | 0.00 | 5 | 1235.2 |
| 20260905113732 | 70 | 270 | 8.0 | 23.0 | 0.00 | 0.00 | 0.00 | 5 | 1235.1 |
| 20260905113229 | 70 | 247 | 11.0 | 25.0 | 0.00 | 0.00 | 0.00 | 5 | 1236.8 |
| 20260905112727 | 71 | 270 | 6.0 | 16.0 | 0.00 | 0.00 | 0.00 | 5 | 1235.8 |
| 20260905112224 | 70 | 270 | 9.0 | 22.0 | 0.00 | 0.00 | 0.00 | 5 | 1235.6 |
| 20260905111721 | 70 | 135 | 4.0 | 8.0 | 0.00 | 0.00 | 0.00 | 5 | 1235.3 |
| 20260905111218 | 70 | 270 | 7.0 | 20.0 | 0.00 | 0.00 | 0.00 | 5 | 1237.0 |
| 20260905110210 | 70 | 270 | 8.0 | 17.0 | 0.00 | 0.00 | 0.00 | 6 | 1237.1 |
| 20260905105707 | 69 | 247 | 7.0 | 19.0 | 0.00 | 0.00 | 0.00 | 6 | 1236.5 |
| 20260905105205 | 70 | 270 | 7.0 | 16.0 | 0.00 | 0.00 | 0.00 | 6 | 1237.5 |
| 20260905104702 | 68 | 247 | 7.0 | 27.0 | 0.00 | 0.00 | 0.00 | 6 | 1237.3 |
| 20260905104159 | 68 | 135 | 7.0 | 16.0 | 0.00 | 0.00 | 0.00 | 6 | 1237.4 |
| 20260905103656 | 68 | 270 | 7.0 | 17.0 | 0.00 | 0.00 | 0.00 | 6 | 1238.6 |
| 20260905103154 | 67 | 270 | 7.0 | 18.0 | 0.00 | 0.00 | 0.00 | 6 | 1238.3 |
| 20260905102651 | 67 | 225 | 9.0 | 21.0 | 0.00 | 0.00 | 0.00 | 7 | 1240.1 |
| 20260905102148 | 66 | 247 | 8.0 | 17.0 | 0.00 | 0.00 | 0.00 | 7 | 1240.2 |
| 20260905101645 | 66 | 225 | 6.0 | 16.0 | 0.00 | 0.00 | 0.00 | 6 | 1239.7 |
| 20260905101142 | 65 | 247 | 6.0 | 17.0 | 0.00 | 0.00 | 0.00 | 6 | 1239.1 |
| 20260905100640 | 65 | 270 | 7.0 | 18.0 | 0.00 | 0.00 | 0.00 | 7 | 1241.0 |
| 20260905100137 | 66 | 270 | 4.0 | 17.0 | 0.00 | 0.00 | 0.00 | 6 | 1239.1 |
| 20260905095634 | 65 | 247 | 7.0 | 18.0 | 0.00 | 0.00 | 0.00 | 7 | 1240.9 |
| 20260905095132 | 65 | 135 | 7.0 | 21.0 | 0.00 | 0.00 | 0.00 | 7 | 1241.8 |
| 20260905094629 | 65 | 247 | 6.0 | 19.0 | 0.00 | 0.00 | 0.00 | 6 | 1240.2 |
| 20260905094126 | 65 | 270 | 7.0 | 20.0 | 0.00 | 0.00 | 0.00 | 7 | 1240.8 |
| 20260905093623 | 64 | 247 | 5.0 | 13.0 | 0.00 | 0.00 | 0.00 | 6 | 1240.1 |
| 20260905093120 | 64 | 247 | 4.0 | 8.0 | 0.00 | 0.00 | 0.00 | 6 | 1239.9 |
| 20260905092618 | 64 | 270 | 6.0 | 13.0 | 0.00 | 0.00 | 0.00 | 7 | 1240.9 |
| 20260905092115 | 64 | 270 | 5.0 | 15.0 | 0.00 | 0.00 | 0.00 | 7 | 1240.9 |
| 20260905091612 | 64 | 270 | 5.0 | 10.0 | 0.00 | 0.00 | 0.00 | 6 | 1240.3 |
| 20260905090604 | 63 | 270 | 3.0 | 7.0 | 0.00 | 0.00 | 0.00 | 6 | 1238.7 |
| 20260905085558 | 63 | 270 | 4.0 | 7.0 | 0.00 | 0.00 | 0.00 | 6 | 1239.7 |
| 20260905085056 | 62 | 247 | 3.0 | 5.0 | 0.00 | 0.00 | 0.00 | 6 | 1238.9 |
| 20260905084553 | 62 | 270 | 0.0 | 0.0 | 0.00 | 0.00 | 0.00 | 6 | 1238.9 |
| 20260905084050 | 62 | 135 | 3.0 | 0.0 | 0.00 | 0.00 | 0.00 | 7 | 1240.8 |
| 20260905083547 | 62 | 135 | 0.0 | 0.0 | 0.00 | 0.00 | 0.00 | 6 | 1239.4 |
| 20260905083044 | 62 | 225 | 0.0 | 0.0 | 0.00 | 0.00 | 0.00 | 7 | 1239.7 |
| 20260905082542 | 61 | 270 | 0.0 | 0.0 | 0.00 | 0.00 | 0.00 | 7 | 1242.1 |
| 20260905082039 | 61 | 270 | 0.0 | 0.0 | 0.00 | 0.00 | 0.00 | 7 | 1243.2 |
| 20260905081536 | 61 | 270 | 5.0 | 8.0 | 0.00 | 0.00 | 0.00 | 7 | 1242.7 |
| 20260905081033 | 61 | 270 | 0.0 | 0.0 | 0.00 | 0.00 | 0.00 | 7 | 1242.5 |
| 20260905080531 | 61 | 270 | 5.0 | 11.0 | 0.00 | 0.00 | 0.00 | 7 | 1242.8 |
| 20260905080028 | 61 | 247 | 3.0 | 4.0 | 0.00 | 0.00 | 0.00 | 6 | 1241.7 |
| 20260905075525 | 61 | 247 | 3.0 | 0.0 | 0.00 | 0.00 | 0.00 | 6 | 1241.6 |
| 20260905075022 | 61 | 247 | 0.0 | 0.0 | 0.00 | 0.00 | 0.00 | 7 | 1242.1 |
| 20260905074520 | 61 | 247 | 0.0 | 0.0 | 0.00 | 0.00 | 0.00 | 7 | 1242.6 |
| 20260905074017 | 61 | 247 | 0.0 | 0.0 | 0.00 | 0.00 | 0.00 | 7 | 1243.6 |
| 20260905073514 | 60 | 247 | 4.0 | 4.0 | 0.00 | 0.00 | 0.00 | 7 | 1243.1 |
| 20260905072506 | 60 | 247 | 0.0 | 0.0 | 0.00 | 0.00 | 0.00 | 7 | 1244.2 |
| 20260905072003 | 60 | 247 | 4.0 | 5.0 | 0.00 | 0.00 | 0.00 | 7 | 1243.5 |
| 20260905071500 | 60 | 270 | 3.0 | 6.0 | 0.00 | 0.00 | 0.00 | 7 | 1244.5 |
| 20260905070958 | 60 | 270 | 4.0 | 8.0 | 0.00 | 0.00 | 0.00 | 7 | 1243.7 |
| 20260905070455 | 60 | 247 | 3.0 | 6.0 | 0.00 | 0.00 | 0.00 | 7 | 1243.6 |
| 20260905065952 | 60 | 247 | 0.0 | 3.0 | 0.00 | 0.00 | 0.00 | 7 | 1243.3 |
| 20260905065449 | 60 | 270 | 0.0 | 0.0 | 0.00 | 0.00 | 0.00 | 7 | 1243.1 |
| 20260905064947 | 60 | 270 | 0.0 | 0.0 | 0.00 | 0.00 | 0.00 | 7 | 1244.1 |
| 20260905064444 | 60 | 270 | 0.0 | 0.0 | 0.00 | 0.00 | 0.00 | 7 | 1245.3 |
| 20260905063941 | 60 | 270 | 3.0 | 4.0 | 0.00 | 0.00 | 0.00 | 7 | 1245.8 |
| 20260905063438 | 60 | 270 | 3.0 | 5.0 | 0.00 | 0.00 | 0.00 | 7 | 1246.2 |
| 20260905062936 | 60 | 270 | 0.0 | 0.0 | 0.00 | 0.00 | 0.00 | 7 | 1246.1 |
| 20260905062433 | 60 | 270 | 0.0 | 0.0 | 0.00 | 0.00 | 0.00 | 7 | 1246.0 |
| 20260905061930 | 60 | 270 | 0.0 | 0.0 | 0.00 | 0.00 | 0.00 | 7 | 1246.1 |
| 20260905061427 | 60 | 270 | 4.0 | 6.0 | 0.00 | 0.00 | 0.00 | 7 | 1246.1 |
| 20260905060925 | 60 | 270 | 4.0 | 6.0 | 0.00 | 0.00 | 0.00 | 7 | 1246.3 |
| 20260905060422 | 61 | 270 | 6.0 | 11.0 | 0.00 | 0.00 | 0.00 | 7 | 1246.8 |
| 20260905055919 | 62 | 270 | 8.0 | 14.0 | 0.00 | 0.00 | 0.00 | 7 | 1245.6 |
| 20260905055416 | 63 | 270 | 8.0 | 13.0 | 0.00 | 0.00 | 0.00 | 6 | 1245.0 |
| 20260905054914 | 64 | 270 | 10.0 | 18.0 | 0.00 | 0.00 | 0.00 | 6 | 1245.8 |
| 20260905054411 | 64 | 270 | 15.0 | 24.0 | 0.00 | 0.00 | 0.00 | 6 | 1244.3 |
| 20260905053908 | 66 | 270 | 11.0 | 22.0 | 0.00 | 0.00 | 0.00 | 6 | 1242.5 |
| 20260905053405 | 66 | 270 | 4.0 | 8.0 | 0.00 | 0.00 | 0.00 | 6 | 1242.8 |
| 20260905052903 | 66 | 270 | 4.0 | 7.0 | 0.00 | 0.00 | 0.00 | 6 | 1240.2 |
| 20260905052400 | 66 | 270 | 5.0 | 8.0 | 0.00 | 0.00 | 0.00 | 6 | 1239.6 |
| 20260905051857 | 66 | 315 | 4.0 | 8.0 | 0.00 | 0.00 | 0.00 | 6 | 1242.4 |
| 20260905051354 | 66 | 315 | 5.0 | 9.0 | 0.00 | 0.00 | 0.00 | 6 | 1242.4 |
| 20260905050852 | 66 | 337 | 4.0 | 12.0 | 0.00 | 0.00 | 0.00 | 6 | 1242.4 |
| 20260905050349 | 67 | 315 | 7.0 | 11.0 | 0.00 | 0.00 | 0.00 | 6 | 1242.0 |
| 20260905045846 | 67 | 270 | 4.0 | 8.0 | 0.00 | 0.00 | 0.00 | 6 | 1241.4 |
| 20260905045343 | 66 | 337 | 3.0 | 7.0 | 0.00 | 0.00 | 0.00 | 6 | 1241.3 |
| 20260905044841 | 66 | 270 | 4.0 | 7.0 | 0.00 | 0.00 | 0.00 | 6 | 1240.4 |
| 20260905044338 | 66 | 270 | 4.0 | 11.0 | 0.00 | 0.00 | 0.00 | 6 | 1240.4 |
| 20260905043835 | 67 | 270 | 3.0 | 7.0 | 0.00 | 0.00 | 0.00 | 6 | 1240.5 |
| 20260905043332 | 66 | 270 | 3.0 | 5.0 | 0.00 | 0.00 | 0.00 | 7 | 1241.0 |
| 20260905042830 | 66 | 270 | 3.0 | 4.0 | 0.00 | 0.00 | 0.00 | 7 | 1240.8 |
| 20260905042327 | 66 | 270 | 3.0 | 6.0 | 0.00 | 0.00 | 0.00 | 7 | 1241.1 |
| 20260905041824 | 66 | 270 | 3.0 | 4.0 | 0.00 | 0.00 | 0.00 | 6 | 1236.6 |
| 20260905041321 | 66 | 270 | 3.0 | 4.0 | 0.00 | 0.00 | 0.00 | 6 | 1235.5 |
| 20260905040819 | 66 | 270 | 2.0 | 4.0 | 0.00 | 0.00 | 0.00 | 6 | 1236.3 |
| 20260905040316 | 67 | 270 | 3.0 | 4.0 | 0.00 | 0.00 | 0.00 | 6 | 1236.8 |
| 20260905035813 | 67 | 270 | 3.0 | 3.0 | 0.00 | 0.00 | 0.00 | 6 | 1238.9 |
| 20260905035310 | 67 | 270 | 3.0 | 4.0 | 0.00 | 0.00 | 0.00 | 6 | 1238.8 |
| 20260905034808 | 68 | 270 | 3.0 | 5.0 | 0.00 | 0.00 | 0.00 | 7 | 1239.0 |
| 20260905034305 | 68 | 270 | 3.0 | 6.0 | 0.00 | 0.00 | 0.00 | 6 | 1238.5 |
| 20260905033802 | 68 | 270 | 7.0 | 15.0 | 0.00 | 0.00 | 0.00 | 6 | 1238.1 |
| 20260905033259 | 69 | 270 | 5.0 | 8.0 | 0.00 | 0.00 | 0.00 | 6 | 1237.9 |
| 20260905032757 | 69 | 270 | 8.0 | 14.0 | 0.00 | 0.00 | 0.00 | 6 | 1236.8 |
| 20260905032254 | 70 | 270 | 9.0 | 17.0 | 0.00 | 0.00 | 0.00 | 6 | 1236.4 |
| 20260905031751 | 70 | 315 | 10.0 | 18.0 | 0.00 | 0.00 | 0.00 | 6 | 1235.9 |
| 20260905031248 | 71 | 315 | 10.0 | 17.0 | 0.00 | 0.00 | 0.00 | 6 | 1234.7 |
| 20260905030745 | 71 | 270 | 11.0 | 21.0 | 0.00 | 0.00 | 0.00 | 6 | 1234.3 |
| 20260905030243 | 72 | 315 | 11.0 | 24.0 | 0.00 | 0.00 | 0.00 | 6 | 1232.6 |
| 20260905025740 | 73 | 315 | 10.0 | 19.0 | 0.00 | 0.00 | 0.00 | 5 | 1228.5 |
| 20260905025237 | 75 | 247 | 5.0 | 10.0 | 0.00 | 0.00 | 0.00 | 4 | 1221.8 |
| 20260905024735 | 75 | 270 | 5.0 | 12.0 | 0.00 | 0.00 | 0.00 | 4 | 1221.3 |
| 20260905024232 | 75 | 247 | 5.0 | 13.0 | 0.00 | 0.00 | 0.00 | 4 | 1220.4 |
| 20260905023729 | 75 | 270 | 4.0 | 7.0 | 0.00 | 0.00 | 0.00 | 4 | 1219.6 |
| 20260905023226 | 74 | 247 | 6.0 | 10.0 | 0.00 | 0.00 | 0.00 | 4 | 1219.3 |
| 20260905022724 | 74 | 270 | 3.0 | 3.0 | 0.00 | 0.00 | 0.00 | 4 | 1219.3 |
| 20260905022221 | 74 | 247 | 4.0 | 3.0 | 0.00 | 0.00 | 0.00 | 4 | 1218.1 |
| 20260905021718 | 74 | 270 | 0.0 | 0.0 | 0.00 | 0.00 | 0.00 | 4 | 1218.8 |
| 20260905021215 | 73 | 247 | 0.0 | 0.0 | 0.00 | 0.00 | 0.00 | 4 | 1219.3 |
| 20260905020713 | 73 | 247 | 0.0 | 0.0 | 0.00 | 0.00 | 0.00 | 4 | 1219.3 |
| 20260905020210 | 74 | 247 | 0.0 | 0.0 | 0.00 | 0.00 | 0.00 | 4 | 1219.7 |
| 20260905015707 | 74 | 247 | 3.0 | 4.0 | 0.00 | 0.00 | 0.00 | 4 | 1219.8 |
| 20260905015207 | 74 | 270 | 4.0 | 7.0 | 0.00 | 0.00 | 0.00 | 4 | 1219.9 |
| 20260905014702 | 74 | 247 | 0.0 | 0.0 | 0.00 | 0.00 | 0.00 | 4 | 1218.6 |
| 20260905014159 | 74 | 270 | 0.0 | 0.0 | 0.00 | 0.00 | 0.00 | 4 | 1218.7 |
| 20260905013656 | 74 | 270 | 0.0 | 0.0 | 0.00 | 0.00 | 0.00 | 4 | 1218.6 |
| 20260905013153 | 74 | 270 | 0.0 | 0.0 | 0.00 | 0.00 | 0.00 | 4 | 1219.2 |
| 20260905012650 | 73 | 270 | 0.0 | 0.0 | 0.00 | 0.00 | 0.00 | 4 | 1219.3 |
| 20260905012148 | 74 | 270 | 0.0 | 0.0 | 0.00 | 0.00 | 0.00 | 4 | 1219.5 |
| 20260905011645 | 74 | 270 | 0.0 | 0.0 | 0.00 | 0.00 | 0.00 | 4 | 1219.2 |
| 20260905011142 | 74 | 270 | 0.0 | 0.0 | 0.00 | 0.00 | 0.00 | 4 | 1219.2 |
| 20260905010640 | 74 | 247 | 0.0 | 0.0 | 0.00 | 0.00 | 0.00 | 4 | 1218.7 |
| 20260905010137 | 73 | 270 | 0.0 | 0.0 | 0.00 | 0.00 | 0.00 | 4 | 1218.9 |
| 20260905005634 | 73 | 247 | 0.0 | 0.0 | 0.00 | 0.00 | 0.00 | 4 | 1219.2 |
| 20260905005131 | 73 | 247 | 0.0 | 0.0 | 0.00 | 0.00 | 0.00 | 4 | 1219.4 |
| 20260905004628 | 73 | 247 | 0.0 | 0.0 | 0.00 | 0.00 | 0.00 | 4 | 1219.3 |
| 20260905004126 | 73 | 247 | 0.0 | 0.0 | 0.00 | 0.00 | 0.00 | 4 | 1219.8 |
| 20260905003623 | 73 | 247 | 0.0 | 0.0 | 0.00 | 0.00 | 0.00 | 4 | 1219.8 |
| 20260905003120 | 73 | 247 | 0.0 | 0.0 | 0.00 | 0.00 | 0.00 | 4 | 1220.3 |
| 20260905002617 | 72 | 247 | 0.0 | 0.0 | 0.00 | 0.00 | 0.00 | 4 | 1220.8 |
| 20260905002115 | 72 | 247 | 0.0 | 0.0 | 0.00 | 0.00 | 0.00 | 4 | 1221.5 |
| 20260905001612 | 71 | 247 | 0.0 | 0.0 | 0.00 | 0.00 | 0.00 | 4 | 1222.4 |
| 20260905001109 | 70 | 247 | 0.0 | 0.0 | 0.00 | 0.00 | 0.00 | 4 | 1222.7 |
| 20260905000606 | 69 | 247 | 0.0 | 0.0 | 0.00 | 0.00 | 0.00 | 5 | 1223.9 |
| 20260905000104 | 68 | 247 | 0.0 | 0.0 | 0.00 | 0.00 | 0.00 | 5 | 1224.3 |
| 20260904235601 | 68 | 247 | 0.0 | 0.0 | 0.00 | 0.00 | 0.00 | 5 | 1225.2 |
| 20260904235058 | 67 | 247 | 0.0 | 0.0 | 0.00 | 0.00 | 0.00 | 5 | 1225.6 |
| 20260904234554 | 67 | 247 | 0.0 | 0.0 | 0.00 | 0.00 | 0.00 | 5 | 1225.6 |
| 20260904234054 | 68 | 247 | 0.0 | 0.0 | 0.00 | 0.00 | 0.00 | 5 | 1225.1 |
| 20260904233549 | 68 | 247 | 0.0 | 0.0 | 0.00 | 0.00 | 0.00 | 5 | 1224.6 |
| 20260904232543 | 67 | 247 | 0.0 | 0.0 | 0.00 | 0.00 | 0.00 | 5 | 1225.4 |
| 20260904232041 | 67 | 247 | 0.0 | 0.0 | 0.00 | 0.00 | 0.00 | 5 | 1225.5 |
| 20260904231538 | 67 | 247 | 0.0 | 0.0 | 0.00 | 0.00 | 0.00 | 5 | 1226.3 |
| 20260904231035 | 67 | 247 | 0.0 | 0.0 | 0.00 | 0.00 | 0.00 | 5 | 1226.2 |
| 20260904230532 | 67 | 247 | 0.0 | 0.0 | 0.00 | 0.00 | 0.00 | 5 | 1225.6 |
| 20260904230030 | 67 | 247 | 0.0 | 0.0 | 0.00 | 0.00 | 0.00 | 5 | 1225.1 |
| 20260904225527 | 68 | 247 | 0.0 | 0.0 | 0.00 | 0.00 | 0.00 | 5 | 1225.3 |
| 20260904225024 | 68 | 247 | 0.0 | 0.0 | 0.00 | 0.00 | 0.00 | 5 | 1224.9 |
| 20260904224521 | 68 | 247 | 0.0 | 0.0 | 0.00 | 0.00 | 0.00 | 5 | 1224.8 |
| 20260904224018 | 68 | 247 | 0.0 | 0.0 | 0.00 | 0.00 | 0.00 | 5 | 1225.1 |
| 20260904223516 | 68 | 247 | 0.0 | 0.0 | 0.00 | 0.00 | 0.00 | 5 | 1225.0 |
| 20260904223013 | 68 | 247 | 0.0 | 0.0 | 0.00 | 0.00 | 0.00 | 5 | 1225.0 |
| 20260904222510 | 68 | 247 | 0.0 | 0.0 | 0.00 | 0.00 | 0.00 | 5 | 1224.7 |
| 20260904222007 | 68 | 247 | 0.0 | 0.0 | 0.00 | 0.00 | 0.00 | 5 | 1224.5 |
| 20260904221505 | 68 | 247 | 0.0 | 0.0 | 0.00 | 0.00 | 0.00 | 5 | 1224.2 |
| 20260904221002 | 68 | 247 | 0.0 | 0.0 | 0.00 | 0.00 | 0.00 | 5 | 1224.0 |
| 20260904220459 | 67 | 247 | 0.0 | 0.0 | 0.00 | 0.00 | 0.00 | 5 | 1224.4 |
| 20260904215957 | 67 | 247 | 0.0 | 0.0 | 0.00 | 0.00 | 0.00 | 5 | 1224.2 |